This is the latest recevied weather packets stored in our database for station/object F4IVW-13. If no packets are shown the sender has not sent any weather packets the latest 10 day(s).
| Time | Temp. | Humidity | Pressure | Rain* | Wind** | Luminosity | Snow |
|---|---|---|---|---|---|---|---|
| 1777986163 | 15° C | 99% | 1014.1 hPa | 0 mm | - | 20 W/m² | - |
| 1777985842 | 15° C | 99% | 1014 hPa | 0 mm | - | 30 W/m² | - |
| 1777985520 | 15° C | 99% | 1014.1 hPa | 0 mm | - | 40 W/m² | - |
| 1777985206 | 14.44° C | 99% | 1014.1 hPa | 0 mm | - | 64 W/m² | - |
| 1777984575 | 14.44° C | 99% | 1014.2 hPa | 0.25 mm | - | 79 W/m² | - |
| 1777984248 | 14.44° C | 99% | 1014.3 hPa | 0.25 mm | - | 47 W/m² | - |
| 1777983933 | 13.89° C | 99% | 1014.3 hPa | 0.25 mm | - | 36 W/m² | - |
| 1777983614 | 13.89° C | 99% | 1014.3 hPa | 0.25 mm | - | 68 W/m² | - |
| 1777982660 | 13.33° C | 99% | 1014.3 hPa | 0.25 mm | - | 48 W/m² | - |
| 1777981707 | 11.67° C | 99% | 1014.5 hPa | 0 mm | - | 17 W/m² | - |
| 1777981082 | 11.67° C | 99% | 1014.5 hPa | 0 mm | - | 12 W/m² | - |
| 1777980755 | 11.67° C | 99% | 1014.5 hPa | 0 mm | - | 10 W/m² | - |
| 1777979795 | 11.67° C | 99% | 1014.6 hPa | 0 mm | - | 8 W/m² | - |
| 1777979486 | 11.67° C | 99% | 1014.7 hPa | 0 mm | - | 10 W/m² | - |
| 1777979478 | 11.67° C | 99% | 1014.7 hPa | 0 mm | - | 10 W/m² | - |
| 1777979163 | 12.22° C | 99% | 1014.7 hPa | 0 mm | - | 11 W/m² | - |
| 1777978846 | 11.67° C | 99% | 1014.8 hPa | 0 mm | - | 11 W/m² | - |
| 1777978219 | 11.67° C | 99% | 1014.9 hPa | 0 mm | - | 11 W/m² | - |
| 1777977889 | 11.11° C | 99% | 1014.9 hPa | 4.57 mm | - | 15 W/m² | - |
| 1777977257 | 10° C | 99% | 1014.9 hPa | 4.57 mm | - | 9 W/m² | - |
| 1777976947 | 10° C | 99% | 1014.9 hPa | 4.32 mm | - | 5 W/m² | - |
| 1777976300 | 11.11° C | 99% | 1014.9 hPa | 4.06 mm | - | 0 W/m² | - |
| 1777975983 | 11.67° C | 99% | 1014.9 hPa | 4.06 mm | - | 0 W/m² | - |
| 1777975356 | 12.78° C | 99% | 1014.4 hPa | 1.02 mm | - | 0 W/m² | - |
| 1777974715 | 15.56° C | 99% | 1014.4 hPa | 0 mm | - | 0 W/m² | - |
* Rain latest hour (hover to see other rain measurements)
** Current wind speed in m/s (hover to see current wind gust speed)